Location: Gaast
(52.9002°N, 5.8891°E)
Time: 10:31:56
(UTC+00:00)

Cosmos 1943 Rocket - Pass Details

Date: 18 November 2025
Orbit: 812 x 841 km, 71.0° (Epoch: 11 December)

Event Time Altitude Azimuth Distance (km) Brightness Sun altitude
Rises 17:23:01 0° 203° (SSW) 3,372 5.8 -15.6°
Reaches altitude 10° 17:25:27 10° 202° (SSW) 2,438 5.0 -15.9°
Maximum altitude 17:31:01 75° 118° (ESE) 862 2.1 -16.7°
Enters shadow 17:35:21 17° 35° (NE) 1,972 3.7 -17.4°
